Abilene, TX

11:36 PM CST on January 18, 2017 (GMT -0600)
Abilene Regional

Weather History for KABI - December, 2012

Change the Weather History Date:

Saturday, December 15, 2012

  Actual Average Record
Temperature  
Mean Temperature 59 °F 45 °F  
Max Temperature 71 °F 57 °F 83 °F (2010)
Min Temperature 46 °F 33 °F 10 °F (1901)
Degree Days  
Heating Degree Days 6 20  
Month to date heating degree days 169 279  
Since 1 July heating degree days 511 712  
Cooling Degree Days 0 0  
Month to date cooling degree days 16 0  
Year to date cooling degree days 3049 2408  
Growing Degree Days 8 (Base 50)    
Moisture  
Dew Point 29 °F    
Average Humidity 35    
Maximum Humidity 49    
Minimum Humidity 20    
Precipitation  
Precipitation 0.00 in 0.04 in 1.17 in (1967)
Month to date precipitation T 0.60  
Year to date precipitation 23.16 24.19  
Sea Level Pressure  
Sea Level Pressure 29.87 in    
Wind  
Wind Speed 9 mph (SW)    
Max Wind Speed 22 mph    
Max Gust Speed 26 mph    
Visibility 10 miles    
Events      
T = Trace of Precipitation, MM = Missing Value Source: NWS Daily Summary

Daily Weather History Graph

Daily Weather History Graph

Search for Another Location

Airport or City:

Trip Planner

Search our weather history database for the weather conditions in past years. The results will help you decide how hot, cold, wet, or windy it might be!

Date:

Astronomy

Dec. 15, 2012 Rise Set
Actual Time 7:33 AM CST 5:35 PM CST
Civil Twilight 7:05 AM CST 6:02 PM CST
Nautical Twilight 6:35 AM CST 6:33 PM CST
Astronomical Twilight 6:05 AM CST 7:03 PM CST
Moon 9:33 AM CST (12/15) 8:34 PM CST (12/15)
Length of Visible Light 10h 56m
Length of Day
10h 02m
Waxing Crescent, 8% of the Moon is Illuminated
Dec 15
Waxing Crescent
Dec 19
First Quarter
Dec 28
Full
Jan 4
Last Quarter
Jan 11
New

Hourly Weather History & Observations

Time (CST) Temp. Windchill Dew Point Humidity Pressure Visibility Wind Dir Wind Speed Gust Speed Precip Events Conditions
12:52 AM 57.9 °F - 30.0 °F 35% 29.88 in 10.0 mi WSW 10.4 mph - N/A   Overcast
1:52 AM 55.9 °F - 30.0 °F 37% 29.88 in 10.0 mi WSW 8.1 mph - N/A   Mostly Cloudy
2:52 AM 55.0 °F - 28.9 °F 37% 29.86 in 10.0 mi WSW 11.5 mph - N/A   Clear
3:52 AM 52.0 °F - 28.0 °F 40% 29.88 in 10.0 mi WSW 6.9 mph - N/A   Clear
4:52 AM 46.9 °F - 28.0 °F 48% 29.88 in 10.0 mi SW 6.9 mph - N/A   Clear
5:52 AM 46.0 °F 41.9 °F 27.0 °F 47% 29.87 in 10.0 mi SW 8.1 mph - N/A   Clear
6:52 AM 46.9 °F - 28.0 °F 48% 29.89 in 10.0 mi SSW 11.5 mph - N/A   Clear
7:52 AM 46.9 °F - 28.0 °F 48% 29.90 in 10.0 mi SSW 8.1 mph - N/A   Clear
8:52 AM 48.9 °F - 28.0 °F 44% 29.92 in 10.0 mi SSW 6.9 mph - N/A   Clear
9:52 AM 55.9 °F - 26.1 °F 32% 29.92 in 10.0 mi WSW 11.5 mph - N/A   Clear
10:52 AM 63.0 °F - 26.1 °F 25% 29.91 in 10.0 mi West 13.8 mph - N/A   Clear
11:52 AM 66.0 °F - 26.1 °F 22% 29.90 in 10.0 mi West 17.3 mph 25.3 mph N/A   Clear
12:52 PM 68.0 °F - 26.1 °F 21% 29.86 in 10.0 mi West 12.7 mph - N/A   Clear
1:52 PM 69.1 °F - 27.0 °F 21% 29.83 in 10.0 mi West 10.4 mph - N/A   Clear
2:52 PM 68.0 °F - 28.0 °F 22% 29.82 in 10.0 mi West 15.0 mph - N/A   Clear
3:52 PM 66.9 °F - 28.9 °F 24% 29.83 in 10.0 mi WSW 12.7 mph - N/A   Clear
4:52 PM 64.9 °F - 30.0 °F 27% 29.84 in 10.0 mi WSW 10.4 mph - N/A   Clear
5:52 PM 61.0 °F - 30.9 °F 32% 29.85 in 10.0 mi SW 6.9 mph - N/A   Clear
6:52 PM 57.0 °F - 30.9 °F 37% 29.86 in 10.0 mi SE 4.6 mph - N/A   Clear
7:52 PM 55.0 °F - 32.0 °F 42% 29.86 in 10.0 mi SSW 4.6 mph - N/A   Clear
8:52 PM 54.0 °F - 32.0 °F 43% 29.86 in 10.0 mi SW 5.8 mph - N/A   Clear
9:52 PM 52.0 °F - 32.0 °F 47% 29.84 in 10.0 mi South 5.8 mph - N/A   Clear
10:52 PM 51.1 °F - 32.0 °F 48% 29.84 in 10.0 mi SSW 5.8 mph - N/A   Clear
11:52 PM 52.0 °F - 32.0 °F 47% 29.83 in 10.0 mi South 6.9 mph - N/A   Clear